Find Starlink 32604

NORAD ID: 62070 Int'l Des: 2024-217 Owner: SPXS Country: US Constellation: starlink operational
LEOCIRCULAR

リアルタイム位置

3D地球を読み込み中...

Starlink 32604について

説明を読み込み中...

次回通過

Passes for default location (London). Set your location on the main map for personalized predictions.

高度履歴

Loading altitude history...

軌道要素

1 62070U 24217P 26106.48103079 .00009248 00000-0 32398-3 0 9999
2 62070 53.1626 18.6251 0001061 101.2256 258.8864 15.30199207 79204
Epoch: Apr 16, 2026 • Age: 22 hours

現在のステータス

高度 480.0 km
速度 7.63 km/s
衛星直下点 48.36°N, 78.86°E
打ち上げ日 Nov 24, 2024
運用期間 1.3 years
タイプ internet

技術仕様

分類 Payload
質量 730.00 kg
乾燥質量 700.00 kg
総質量 730.00 kg
長さ 0.30 m
直径 4.10 m
スパン 29.00 m
形状 Box + pan
製造者 SPXS
バスタイプ Starlink V2M
フェーズステータス In Orbit
所有者/国 SPXS/US

Most Searched